Date String (YYYY-MM-DD hh:mm:ss) UTC,Instrument flags,absolute air pressure of the measurement (hPa),sample flow rate (lpm),inlet stack bypass flow (lpm),air temperature of the measurement (°C),ambient temperature measured by the external sensor (°C),aerosol sample conditioner tube jacket temperature (°C),OPC LED temperature (°C),internal box temperature (°C),relative humidity of the measurement (%),span deviation,mass concentration of particles derived from Lorenz-Mie calculation of OPC scattering (μg/m³),mass concentration of particles derived from Lorenz-Mie calculation of OPC scattering (μg/m³),mass concentration of particles derived from Lorenz-Mie calculation of OPC scattering (μg/m³)
DateTimeUTC,F1_M11,P_M11,Q1_M11,Q2_M11,T1_M11,T2_M11,T3_M11,T4_M11,T5_M11,U1_M11,ZSPAN_M11,X0_M11,X2_M11,X1_M11
2023-06-05 18:00:00,SystemResetWarning,0835.0,5.01,000.00,029.7,028.3,000.0,038.0,031.4,30.2,0001.5,0010.33,0006.71,0006.41
2023-06-05 18:01:00,SystemResetWarning,0835.0,5.00,000.00,029.7,028.4,000.0,038.0,031.4,29.6,0001.7,0010.38,0006.76,0006.45
2023-06-05 18:02:00,SystemResetWarning,0835.0,4.99,000.00,029.7,028.4,000.0,038.0,031.4,30.0,0001.8,0010.37,0006.76,0006.45
2023-06-05 18:03:00,SystemResetWarning,0835.0,4.99,000.00,029.8,027.9,000.0,038.0,031.4,29.3,0002.1,0010.39,0006.78,0006.48
2023-06-05 18:04:00,SystemResetWarning,0834.9,5.00,000.00,029.7,026.5,000.0,037.9,031.2,29.3,0002.1,0010.40,0006.79,0006.48
2023-06-05 18:05:00,SystemResetWarning,0834.8,5.00,000.00,029.7,026.1,000.0,037.9,031.1,30.3,0002.0,0010.00,0006.79,0006.45
2023-06-05 18:06:00,SystemResetWarning,0834.8,5.01,000.00,029.6,026.2,000.0,037.9,031.0,30.0,0001.9,0009.90,0006.77,0006.42
2023-06-05 18:07:00,SystemResetWarning,0835.3,5.01,000.00,029.6,026.5,000.0,037.9,031.0,31.1,0001.9,0009.91,0006.73,0006.37
2023-06-05 18:08:00,SystemResetWarning,0835.2,4.99,000.00,029.5,026.8,000.0,037.9,031.1,32.0,0001.2,0009.79,0006.65,0006.31
2023-06-05 18:09:00,SystemResetWarning,0835.0,5.00,000.00,029.5,027.1,000.0,037.9,031.1,32.2,0001.4,0009.70,0006.57,0006.25
2023-06-05 18:10:00,SystemResetWarning,0834.9,5.00,000.00,029.5,027.3,000.0,037.9,031.1,31.2,0001.6,0009.79,0006.59,0006.26
2023-06-05 18:11:00,SystemResetWarning,0834.9,5.00,000.00,029.5,027.5,000.0,037.9,031.2,30.0,0001.5,0009.83,0006.62,0006.30
2023-06-05 18:12:00,SystemResetWarning,0835.1,5.00,000.00,029.6,027.7,000.0,037.9,031.2,30.4,0001.2,0009.85,0006.65,0006.33
2023-06-05 18:13:00,SystemResetWarning,0835.1,4.99,000.00,029.6,027.8,000.0,037.9,031.2,31.2,0001.3,0009.90,0006.74,0006.41
2023-06-05 18:14:00,SystemResetWarning,0834.8,4.99,000.00,029.6,028.0,000.0,037.9,031.3,30.4,0000.9,0009.97,0006.80,0006.47
2023-06-05 18:15:00,SystemResetWarning,0835.1,5.00,000.00,029.6,028.1,000.0,037.9,031.3,28.7,0000.4,0010.34,0006.80,0006.46
2023-06-05 18:16:00,SystemResetWarning,0835.1,5.01,000.00,029.6,028.1,000.0,037.9,031.3,28.8,0000.5,0010.41,0006.80,0006.48
2023-06-05 18:17:00,SystemResetWarning,0835.3,5.01,000.00,029.6,028.2,000.0,037.9,031.3,28.6,0000.6,0010.39,0006.81,0006.50
2023-06-05 18:18:00,SystemResetWarning,0835.4,5.00,000.00,029.7,028.2,000.0,037.9,031.3,28.8,0000.4,0010.74,0006.84,0006.53
2023-06-05 18:19:00,SystemResetWarning,0835.4,5.00,000.00,029.7,028.3,000.0,038.0,031.4,28.9,0000.9,0011.30,0006.91,0006.58
2023-06-05 18:20:00,SystemResetWarning,0835.3,4.99,000.00,029.7,028.2,000.0,038.0,031.4,30.0,0000.9,0011.36,0006.95,0006.61
2023-06-05 18:21:00,SystemResetWarning,0834.9,4.99,000.00,029.7,027.1,000.0,037.9,031.2,29.1,0000.8,0011.33,0007.07,0006.69
2023-06-05 18:22:00,SystemResetWarning,0834.8,5.00,000.00,029.6,026.0,000.0,037.8,031.0,29.7,0000.7,0011.33,0007.16,0006.77
2023-06-05 18:23:00,SystemResetWarning,0834.8,5.00,000.00,029.6,025.9,000.0,037.8,031.0,29.9,0001.3,0011.45,0007.25,0006.85
2023-06-05 18:24:00,SystemResetWarning,0834.8,5.01,000.00,029.5,026.1,000.0,037.8,030.9,29.8,0001.3,0011.52,0007.32,0006.92
2023-06-05 18:25:00,SystemResetWarning,0834.8,5.01,000.00,029.5,026.4,000.0,037.8,031.0,30.4,0001.3,0011.48,0007.34,0006.94
2023-06-05 18:26:00,SystemResetWarning,0834.7,5.00,000.00,029.5,026.7,000.0,037.8,031.0,29.9,0001.3,0011.17,0007.36,0006.96
2023-06-05 18:27:00,SystemResetWarning,0834.7,5.00,000.00,029.5,027.0,000.0,037.8,031.0,29.1,0001.3,0011.10,0007.36,0006.96
2023-06-05 18:28:00,SystemResetWarning,0834.7,5.00,000.00,029.5,027.3,000.0,037.8,031.1,29.1,0001.3,0011.52,0007.37,0006.97
2023-06-05 18:29:00,SystemResetWarning,0834.9,5.00,000.00,029.5,027.5,000.0,037.8,031.1,29.3,0001.6,0011.48,0007.36,0006.96
2023-06-05 18:30:00,SystemResetWarning,0834.7,4.99,000.00,029.5,027.6,000.0,037.8,031.1,28.8,0001.6,0010.94,0007.34,0006.94
2023-06-05 18:31:00,SystemResetWarning,0834.8,5.00,000.00,029.5,027.8,000.0,037.8,031.2,29.3,0001.7,0010.78,0007.32,0006.92
2023-06-05 18:32:00,SystemResetWarning,0834.8,4.99,000.00,029.5,027.9,000.0,037.8,031.2,29.9,0001.8,0010.65,0007.25,0006.88
2023-06-05 18:33:00,SystemResetWarning,0835.2,4.99,000.00,029.5,028.0,000.0,037.8,031.2,29.6,0001.9,0010.50,0007.21,0006.89
2023-06-05 18:34:00,SystemResetWarning,0835.2,5.01,000.00,029.6,028.1,000.0,037.9,031.2,29.3,0001.6,0010.35,0007.14,0006.85
2023-06-05 18:35:00,SystemResetWarning,0835.0,5.01,000.00,029.6,028.2,000.0,037.9,031.3,29.5,0001.2,0010.25,0007.07,0006.79
2023-06-05 18:36:00,SystemResetWarning,0834.6,5.00,000.00,029.6,028.2,000.0,037.9,031.3,29.7,0001.2,0010.26,0007.05,0006.77
2023-06-05 18:37:00,SystemResetWarning,0834.8,5.00,000.00,029.6,028.3,000.0,037.9,031.3,29.5,0001.5,0010.43,0007.16,0006.85
2023-06-05 18:38:00,SystemResetWarning,0834.8,5.00,000.00,029.7,027.9,000.0,037.9,031.3,29.3,0001.9,0010.60,0007.32,0007.01
2023-06-05 18:39:00,SystemResetWarning,0834.7,5.00,000.00,029.6,026.5,000.0,037.8,031.0,29.4,0001.6,0010.58,0007.51,0007.18
2023-06-05 18:40:00,SystemResetWarning,0834.9,5.00,000.00,029.6,025.8,000.0,037.8,030.9,29.6,0001.6,0010.26,0007.66,0007.32
2023-06-05 18:41:00,SystemResetWarning,0834.7,5.01,000.00,029.5,025.9,000.0,037.8,030.9,30.0,0001.9,0010.33,0007.77,0007.46
2023-06-05 18:42:00,SystemResetWarning,0834.5,5.00,000.00,029.4,026.2,000.0,037.8,030.9,30.2,0002.1,0010.45,0007.91,0007.60
2023-06-05 18:43:00,SystemResetWarning,0834.5,5.00,000.00,029.4,026.5,000.0,037.7,030.9,30.0,0001.9,0010.68,0008.06,0007.74
2023-06-05 18:44:00,SystemResetWarning,0834.5,5.00,000.00,029.4,026.8,000.0,037.8,031.0,29.9,0001.7,0010.78,0008.11,0007.77
2023-06-05 18:45:00,SystemResetWarning,0834.5,5.00,000.00,029.4,027.1,000.0,037.7,031.0,30.5,0001.6,0011.39,0008.10,0007.75
2023-06-05 18:46:00,SystemResetWarning,0834.5,5.00,000.00,029.4,027.3,000.0,037.8,031.0,30.0,0001.6,0011.62,0008.11,0007.76
2023-06-05 18:47:00,SystemResetWarning,0834.5,5.00,000.00,029.4,027.5,000.0,037.8,031.1,30.1,0001.9,0011.64,0008.12,0007.76
2023-06-05 18:48:00,SystemResetWarning,0834.5,5.00,000.00,029.4,027.7,000.0,037.8,031.1,30.4,0001.8,0011.63,0008.12,0007.77
2023-06-05 18:49:00,SystemResetWarning,0834.5,4.99,000.00,029.5,027.8,000.0,037.8,031.1,29.8,0001.6,0011.64,0008.09,0007.74
2023-06-05 18:50:00,SystemResetWarning,0834.6,4.99,000.00,029.5,027.9,000.0,037.8,031.2,29.9,0001.6,0011.72,0008.11,0007.74
2023-06-05 18:51:00,SystemResetWarning,0834.5,5.00,000.00,029.5,028.0,000.0,037.8,031.2,30.0,0001.7,0011.74,0008.11,0007.75
2023-06-05 18:52:00,SystemResetWarning,0834.6,5.00,000.00,029.5,028.1,000.0,037.8,031.2,30.3,0001.5,0011.81,0008.12,0007.74
2023-06-05 18:53:00,SystemResetWarning,0834.6,5.01,000.00,029.6,028.2,000.0,037.8,031.3,30.8,0001.2,0012.50,0008.13,0007.72
2023-06-05 18:54:00,SystemResetWarning,0834.7,5.01,000.00,029.6,028.3,000.0,037.8,031.3,30.3,0001.2,0012.63,0008.12,0007.71
2023-06-05 18:55:00,SystemResetWarning,0834.7,5.00,000.00,029.6,028.3,000.0,037.9,031.3,29.6,0001.3,0012.71,0008.13,0007.71
2023-06-05 18:56:00,SystemResetWarning,0834.5,4.99,000.00,029.6,028.1,000.0,037.9,031.3,29.7,0001.4,0012.36,0008.19,0007.76
2023-06-05 18:57:00,SystemResetWarning,0834.5,4.99,000.00,029.6,026.7,000.0,037.8,031.1,30.3,0001.8,0012.03,0008.25,0007.82
2023-06-05 18:58:00,SystemResetWarning,0834.5,5.01,000.00,029.6,025.9,000.0,037.7,031.0,30.8,0001.7,0012.68,0008.31,0007.89
2023-06-05 18:59:00,SystemResetWarning,0834.4,5.01,000.00,029.5,025.9,000.0,037.7,030.9,30.8,0001.7,0013.43,0008.37,0007.97
